一网星座-0625星 (ONEWEB-0625)

导读

ONEWEB-0625是英国OneWeb公司低轨卫星互联网星座的一员,于2023年1月10日由SpaceX猎鹰9号火箭成功发射至近地轨道。每颗卫星重约148公斤,依靠太阳能供电,最终将进入1200公里高度轨道运行。OneWeb计划构建由超600颗卫星组成的星座,为全球提供高速低延迟卫星互联网服务,此次发射进一步推进了星座组网进程。

基本信息
目录编号:
55166
目录名称:
ONEWEB-0625
国际标识:
2023-004AC
轨道中心:
EARTH
卫星名称:
一网星座-0625星
卫星全名:
一网星座-0625星 (ONEWEB-0625)
卫星状态:
在轨 (已飞行1295 天)
发射日期:
2023-01-10 UTC
国别 :
英国 (GB)
星等 :
--
轨道信息
数据来源 国际轨道数据 AOE轨道数据
星历时间 2026-07-27T06:48:40+0800
1天前
查看轨道信息
2026-07-26T07:00:00+0800
2天前
查看轨道信息
半长轴 7571.855km 7571.833km
偏心率 0.0001826 0.0002216
轨道倾角 87.916° 87.916°
近地点辐角 100.062° 113.145°
升交点赤经 357.966° 358.163°
平近点角 260.072° 223.531°
近地点 1192.335km 1192.018km
远地点 1195.101km 1195.374km
周期 109.286分钟 109.285分钟
每日圈数 13.176479 13.176537
详细信息
平衡模式:
三轴稳定
覆盖范围:
全球
运营商:
一网卫星公司
运营商所在国:
英国
制造商(研发单位):
一网卫星公司
制造商所在国:
英国
使用方式:
暂无
卫星简介
OneWeb卫星网络由648颗重约125公斤的微型卫星组成,运行在1200公里的轨道上。 每颗卫星都能够提供至少每秒8千兆位的吞吐量,以使用其高吞吐量的Ku频段有效载荷为家庭和移动平台提供互联网接入。该卫星仍在工作。
2D轨道图
3D轨道图
轨道高度分析图
轨道倾角分析图
轨道综合分析图
查看轨道综合分析图